KE4OGG Weather Reports


Display with metric or nautical units.
time (UTC)temp
F
wind
direction
speed
MPH
gust
MPH
rain 1hr
in
rain 24hr
in
rain mn
in
humidity
%
barometer
mb
20260831163046 88 305 0.0 4.0 0.00 0.00 0.00 51 1022.1
20260831162526 87 0 0.0 4.0 0.00 0.00 0.00 63 1022.3
20260831162026 86 318 1.0 4.0 0.00 0.00 0.00 61 1022.5
20260831161547 86 290 3.0 4.0 0.00 0.00 0.00 60 1022.5
20260831161022 87 295 1.0 3.0 0.00 0.00 0.00 62 1022.5
20260831160524 86 46 1.0 5.0 0.00 0.00 0.00 63 1022.6
20260831160047 86 84 2.0 5.0 0.00 0.00 0.00 65 1022.5
20260831155524 86 124 1.0 4.0 0.00 0.00 0.00 63 1022.5
20260831155027 86 98 1.0 4.0 0.00 0.00 0.00 64 1022.6
20260831154619 85 276 1.0 4.0 0.00 0.00 0.00 66 1022.6
20260831154024 84 0 1.0 4.0 0.00 0.00 0.00 65 1022.7
20260831153522 84 19 1.0 4.0 0.00 0.00 0.00 66 1022.8
20260831153047 84 304 1.0 3.0 0.00 0.00 0.00 66 1022.8
20260831152530 85 302 1.0 3.0 0.00 0.00 0.00 66 1022.8
20260831152027 86 300 1.0 2.0 0.00 0.00 0.00 67 1022.9
20260831151547 85 123 0.0 2.0 0.00 0.00 0.00 67 1022.8
20260831151027 84 44 0.0 2.0 0.00 0.00 0.00 69 1022.9
20260831150526 82 0 0.0 3.0 0.00 0.00 0.00 69 1022.9
20260831150043 83 346 1.0 3.0 0.00 0.00 0.00 68 1022.9
20260831145525 83 291 1.0 3.0 0.00 0.00 0.00 68 1022.9
20260831145024 83 0 0.0 3.0 0.00 0.00 0.00 71 1022.9
20260831144542 83 304 1.0 3.0 0.00 0.00 0.00 69 1022.9
20260831144025 83 0 0.0 3.0 0.00 0.00 0.00 69 1022.9
20260831143530 83 288 1.0 3.0 0.00 0.00 0.00 69 1022.8
20260831143051 84 325 0.0 2.0 0.00 0.00 0.00 67 1022.7
20260831142523 84 0 0.0 2.0 0.00 0.00 0.00 68 1022.8
20260831142023 86 280 0.0 1.0 0.00 0.00 0.00 66 1022.7
20260831141545 86 0 0.0 1.0 0.00 0.00 0.00 67 1022.7
20260831141023 85 0 0.0 0.0 0.00 0.00 0.00 68 1022.7
20260831140526 84 0 0.0 2.0 0.00 0.00 0.00 70 1022.7
20260831140044 83 0 0.0 2.0 0.00 0.00 0.00 70 1022.7
20260831135522 83 0 0.0 3.0 0.00 0.00 0.00 70 1022.8
20260831135027 82 0 0.0 3.0 0.00 0.00 0.00 70 1022.7
20260831134542 83 0 0.0 2.0 0.00 0.00 0.00 70 1022.7
20260831134026 82 0 0.0 2.0 0.00 0.00 0.00 71 1022.6
20260831133525 81 288 0.0 2.0 0.00 0.00 0.00 72 1022.4
20260831133051 81 0 0.0 2.0 0.00 0.00 0.00 72 1022.5
20260831132524 80 0 0.0 1.0 0.00 0.00 0.00 74 1022.6
20260831132024 79 0 0.0 1.0 0.00 0.00 0.00 74 1022.6
20260831131546 78 0 0.0 1.0 0.00 0.00 0.00 76 1022.5
20260831131027 77 0 0.0 1.0 0.00 0.00 0.00 79 1022.6
20260831130523 75 0 0.0 1.0 0.00 0.00 0.00 80 1022.5
20260831130048 75 100 0.0 1.0 0.00 0.00 0.00 81 1022.6
20260831125524 74 0 0.0 1.0 0.00 0.00 0.00 82 1022.6
20260831125024 74 0 0.0 1.0 0.00 0.00 0.00 83 1022.6
20260831124548 74 0 0.0 1.0 0.00 0.00 0.00 83 1022.6
20260831124025 74 0 0.0 1.0 0.00 0.00 0.00 84 1022.5
20260831123524 73 0 0.0 1.0 0.00 0.00 0.00 84 1022.5
20260831123048 73 0 0.0 1.0 0.00 0.00 0.00 85 1022.6
20260831122525 73 0 0.0 1.0 0.00 0.00 0.00 85 1022.5
20260831122026 73 0 0.0 0.0 0.00 0.00 0.00 85 1022.5
20260831121547 72 0 0.0 0.0 0.00 0.00 0.00 86 1022.4
20260831121024 72 0 0.0 0.0 0.00 0.00 0.00 86 1022.5
20260831120525 71 0 0.0 0.0 0.00 0.00 0.00 86 1022.3
20260831120052 71 0 0.0 0.0 0.00 0.00 0.00 86 1022.3
20260831115529 70 0 0.0 0.0 0.00 0.00 0.00 86 1022.3
20260831115024 70 0 0.0 0.0 0.00 0.00 0.00 86 1022.3
20260831114542 70 0 0.0 0.0 0.00 0.00 0.00 85 1022.3
20260831114026 70 0 0.0 0.0 0.00 0.00 0.00 85 1022.4
20260831113524 70 0 0.0 0.0 0.00 0.00 0.00 85 1022.4
20260831113108 69 0 0.0 0.0 0.00 0.00 0.00 85 1022.3
20260831112523 69 0 0.0 0.0 0.00 0.00 0.00 85 1022.3
20260831112023 69 0 0.0 0.0 0.00 0.00 0.00 85 1022.2
20260831111543 69 0 0.0 0.0 0.00 0.00 0.00 85 1022.2
20260831111024 69 0 0.0 0.0 0.00 0.00 0.00 85 1022.0
20260831110523 69 0 0.0 0.0 0.00 0.00 0.00 84 1021.9
20260831110040 69 0 0.0 0.0 0.00 0.00 0.00 84 1021.8
20260831105523 70 0 0.0 0.0 0.00 0.00 0.00 84 1021.7
20260831105024 70 0 0.0 0.0 0.00 0.00 0.00 84 1021.7
20260831104549 70 0 0.0 0.0 0.00 0.00 0.00 84 1021.6
20260831104026 70 0 0.0 0.0 0.00 0.00 0.00 84 1021.6
20260831103531 70 0 0.0 0.0 0.00 0.00 0.00 84 1021.7
20260831103051 70 0 0.0 0.0 0.00 0.00 0.00 83 1021.7
20260831102527 70 0 0.0 0.0 0.00 0.00 0.00 83 1021.7
20260831102029 70 0 0.0 0.0 0.00 0.00 0.00 83 1021.7
20260831101549 70 0 0.0 0.0 0.00 0.00 0.00 83 1021.8
20260831101025 70 0 0.0 0.0 0.00 0.00 0.00 83 1021.7
20260831100523 70 0 0.0 0.0 0.00 0.00 0.00 83 1021.6
20260831100048 70 0 0.0 0.0 0.00 0.00 0.00 83 1021.6
20260831095521 70 0 0.0 0.0 0.00 0.00 0.00 83 1021.6
20260831095021 70 0 0.0 0.0 0.00 0.00 0.00 83 1021.7
20260831094556 70 0 0.0 0.0 0.00 0.00 0.00 83 1021.6
20260831094025 70 0 0.0 0.0 0.00 0.00 0.00 83 1021.7
20260831093525 70 0 0.0 0.0 0.00 0.00 0.00 83 1021.6
20260831093047 70 0 0.0 0.0 0.00 0.00 0.00 82 1021.8
20260831092525 70 0 0.0 0.0 0.00 0.00 0.00 81 1021.7
20260831092027 70 0 0.0 0.0 0.00 0.00 0.00 80 1021.7
20260831091548 70 0 0.0 0.0 0.00 0.00 0.00 80 1021.7
20260831091025 70 0 0.0 0.0 0.00 0.00 0.00 80 1021.8
20260831090523 70 0 0.0 0.0 0.00 0.00 0.00 79 1021.8
20260831090053 71 0 0.0 0.0 0.00 0.00 0.00 79 1021.8
20260831085528 71 0 0.0 0.0 0.00 0.00 0.00 79 1021.7
20260831085026 71 0 0.0 0.0 0.00 0.00 0.00 79 1021.6
20260831084550 71 0 0.0 0.0 0.00 0.00 0.00 79 1021.6
20260831084025 71 0 0.0 0.0 0.00 0.00 0.00 79 1021.5
20260831083525 71 0 0.0 0.0 0.00 0.00 0.00 77 1021.5
20260831083050 71 0 0.0 0.0 0.00 0.00 0.00 76 1021.6
20260831082528 71 0 0.0 0.0 0.00 0.00 0.00 76 1021.5
20260831082023 71 0 0.0 0.0 0.00 0.00 0.00 76 1021.4
20260831081542 71 0 0.0 0.0 0.00 0.00 0.00 75 1021.3
20260831081025 71 0 0.0 0.0 0.00 0.00 0.00 75 1021.3
20260831080525 71 0 0.0 0.0 0.00 0.00 0.00 75 1021.3
20260831080049 71 0 0.0 0.0 0.00 0.00 0.00 75 1021.3
20260831075525 71 0 0.0 0.0 0.00 0.00 0.00 75 1021.4
20260831075024 71 0 0.0 0.0 0.00 0.00 0.00 75 1021.3
20260831074548 71 0 0.0 0.0 0.00 0.00 0.00 74 1021.4
20260831074026 71 0 0.0 0.0 0.00 0.00 0.00 74 1021.3
20260831073526 71 0 0.0 0.0 0.00 0.00 0.00 73 1021.3
20260831073045 71 0 0.0 0.0 0.00 0.00 0.00 73 1021.2
20260831072526 72 0 0.0 0.0 0.00 0.00 0.00 73 1021.1
20260831072027 72 0 0.0 0.0 0.00 0.00 0.00 73 1021.1
20260831071555 72 0 0.0 0.0 0.00 0.00 0.00 73 1021.1
20260831071027 72 0 0.0 0.0 0.00 0.00 0.00 73 1021.1
20260831070526 72 0 0.0 0.0 0.00 0.00 0.00 73 1021.1
20260831070050 72 0 0.0 0.0 0.00 0.00 0.00 73 1021.1
20260831065525 72 0 0.0 0.0 0.00 0.00 0.00 72 1021.2
20260831065025 72 0 0.0 0.0 0.00 0.00 0.00 72 1021.3
20260831064546 72 0 0.0 0.0 0.00 0.00 0.00 73 1021.3
20260831064023 72 0 0.0 0.0 0.00 0.00 0.00 72 1021.3
20260831063524 72 0 0.0 0.0 0.00 0.00 0.00 72 1021.4
20260831063049 72 0 0.0 0.0 0.00 0.00 0.00 71 1021.4
20260831062526 72 0 0.0 0.0 0.00 0.00 0.00 71 1021.4
20260831062030 72 0 0.0 0.0 0.00 0.00 0.00 71 1021.4
20260831061547 72 0 0.0 1.0 0.00 0.00 0.00 70 1021.5
20260831061030 72 0 0.0 1.0 0.00 0.00 0.00 70 1021.4
20260831060524 72 0 0.0 0.0 0.00 0.00 0.00 70 1021.4
20260831060050 72 0 0.0 0.0 0.00 0.00 0.00 69 1021.5
20260831055527 72 0 0.0 0.0 0.00 0.00 0.00 69 1021.5
20260831055025 72 0 0.0 0.0 0.00 0.00 0.00 69 1021.5
20260831054544 72 0 0.0 0.0 0.00 0.00 0.00 69 1021.6
20260831054028 72 0 0.0 0.0 0.00 0.00 0.00 68 1021.6
20260831053525 72 0 0.0 0.0 0.00 0.00 0.00 68 1021.6
20260831053050 73 0 0.0 0.0 0.00 0.00 0.00 68 1021.6
20260831052525 73 0 0.0 0.0 0.00 0.00 0.00 68 1021.7
20260831052025 73 0 0.0 0.0 0.00 0.00 0.00 68 1021.6
20260831051555 73 0 0.0 0.0 0.00 0.00 0.00 68 1021.6
20260831051024 73 0 0.0 0.0 0.00 0.00 0.00 67 1021.4
20260831050524 73 0 0.0 0.0 0.00 0.00 0.00 67 1021.5
20260831050048 73 0 0.0 0.0 0.00 0.00 0.00 67 1021.7
20260831045525 73 0 0.0 0.0 0.00 0.00 0.00 67 1021.6
20260831045024 73 0 0.0 0.0 0.00 0.00 0.00 67 1021.6
20260831044542 73 0 0.0 0.0 0.00 0.00 0.00 66 1021.6
20260831044025 73 0 0.0 0.0 0.00 0.00 0.00 66 1021.5
20260831043525 73 0 0.0 0.0 0.00 0.00 0.00 66 1021.7
20260831043048 73 0 0.0 0.0 0.00 0.00 0.00 66 1021.6
20260831042529 74 0 0.0 0.0 0.00 0.00 0.00 66 1021.6
20260831042024 74 0 0.0 0.0 0.00 0.00 0.00 65 1021.7
20260831041550 74 0 0.0 0.0 0.00 0.00 0.00 65 1021.6
20260831041024 74 0 0.0 0.0 0.00 0.00 0.00 65 1021.7
20260831040524 74 0 0.0 0.0 0.00 0.00 0.00 65 1021.7
20260831040047 74 0 0.0 0.0 0.00 0.00 0.00 65 1021.7
20260831035528 74 0 0.0 0.0 0.00 0.00 0.00 65 1021.8
20260831035023 74 0 0.0 0.0 0.00 0.00 0.00 65 1021.8
20260831034551 74 0 0.0 0.0 0.00 0.00 0.00 65 1021.8
20260831034026 74 0 0.0 0.0 0.00 0.00 0.00 65 1021.8
20260831033525 74 0 0.0 0.0 0.00 0.00 0.00 65 1021.7
20260831033048 74 0 0.0 0.0 0.00 0.00 0.00 65 1021.8
20260831032524 74 0 0.0 0.0 0.00 0.00 0.00 65 1021.9
20260831032024 74 0 0.0 0.0 0.00 0.00 0.00 64 1021.8
20260831031545 74 0 0.0 0.0 0.00 0.00 0.00 64 1021.8
20260831031023 74 0 0.0 0.0 0.00 0.00 0.00 64 1021.8
20260831030527 75 0 0.0 0.0 0.00 0.00 0.00 64 1021.9
20260831030042 75 0 0.0 0.0 0.00 0.00 0.00 64 1021.9
20260831025524 75 0 0.0 0.0 0.00 0.00 0.00 64 1021.8
20260831025025 75 0 0.0 0.0 0.00 0.00 0.00 64 1021.8
20260831024547 75 0 0.0 0.0 0.00 0.00 0.00 63 1021.7
20260831024023 75 0 0.0 0.0 0.00 0.00 0.00 63 1021.7
20260831023523 75 0 0.0 0.0 0.00 0.00 0.00 63 1021.7
20260831023051 75 0 0.0 0.0 0.00 0.00 0.00 63 1021.6
20260831022524 75 0 0.0 0.0 0.00 0.00 0.00 63 1021.8
20260831022024 76 0 0.0 0.0 0.00 0.00 0.00 62 1021.8
20260831021544 76 0 0.0 0.0 0.00 0.00 0.00 62 1021.8
20260831021023 76 0 0.0 0.0 0.00 0.00 0.00 62 1021.8
20260831020524 76 0 0.0 0.0 0.00 0.00 0.00 61 1021.7
20260831020054 76 0 0.0 0.0 0.00 0.00 0.00 61 1021.7
20260831015526 76 0 0.0 0.0 0.00 0.00 0.00 61 1021.7
20260831015023 77 0 0.0 0.0 0.00 0.00 0.00 61 1021.7
20260831014547 77 0 0.0 0.0 0.00 0.00 0.00 60 1021.6
20260831014024 76 0 0.0 0.0 0.00 0.00 0.00 61 1021.6
20260831013524 76 0 0.0 0.0 0.00 0.00 0.00 60 1021.6
20260831013056 77 0 0.0 0.0 0.00 0.00 0.00 60 1021.5
20260831012527 77 0 0.0 0.0 0.00 0.00 0.00 60 1021.6
20260831012024 77 0 0.0 0.0 0.00 0.00 0.00 60 1021.5
20260831011546 77 0 0.0 0.0 0.00 0.00 0.00 59 1021.4
20260831011026 78 0 0.0 0.0 0.00 0.00 0.00 59 1021.4
20260831010525 78 0 0.0 0.0 0.00 0.00 0.00 58 1021.3
20260831010053 78 0 0.0 0.0 0.00 0.00 0.00 58 1021.1
20260831005525 78 0 0.0 0.0 0.00 0.00 0.00 57 1021.1
20260831005025 78 0 0.0 0.0 0.00 0.00 0.00 57 1021.1
20260831004547 79 0 0.0 0.0 0.00 0.00 0.00 56 1021.0
20260831004028 79 0 0.0 0.0 0.00 0.00 0.00 56 1021.1
20260831003532 79 0 0.0 0.0 0.00 0.00 0.00 56 1021.0
20260831003045 80 0 0.0 0.0 0.00 0.00 0.00 55 1021.0
20260831002525 80 0 0.0 0.0 0.00 0.00 0.00 55 1020.9
20260831002023 80 0 0.0 0.0 0.00 0.00 0.00 54 1020.9
20260831001548 81 0 0.0 0.0 0.00 0.00 0.00 53 1020.8
20260831001023 81 0 0.0 0.0 0.00 0.00 0.00 53 1020.7
20260831000523 81 0 0.0 0.0 0.00 0.00 0.00 52 1020.6
20260831000044 82 0 0.0 1.0 0.00 0.00 0.00 52 1020.6
20260830235526 82 0 0.0 1.0 0.00 0.00 0.00 52 1020.5
20260830235026 82 100 0.0 1.0 0.00 0.00 0.00 52 1020.5
20260830234554 83 0 0.0 0.0 0.00 0.00 0.00 51 1020.5
20260830234025 83 0 0.0 0.0 0.00 0.00 0.00 50 1020.4
20260830233527 83 0 0.0 0.0 0.00 0.00 0.00 50 1020.4
20260830233048 84 0 0.0 2.0 0.00 0.00 0.00 50 1020.4
20260830232525 84 0 0.0 2.0 0.00 0.00 0.00 49 1020.5
20260830232024 84 100 1.0 2.0 0.00 0.00 0.00 48 1020.3
20260830231547 84 100 0.0 2.0 0.00 0.00 0.00 48 1020.4
20260830231024 85 0 0.0 1.0 0.00 0.00 0.00 47 1020.5
20260830230525 85 100 0.0 2.0 0.00 0.00 0.00 47 1020.5
20260830230043 85 0 0.0 2.0 0.00 0.00 0.00 46 1020.5
20260830225525 85 0 0.0 2.0 0.00 0.00 0.00 45 1020.4
20260830225029 85 101 0.0 2.0 0.00 0.00 0.00 46 1020.3
20260830224548 86 108 1.0 2.0 0.00 0.00 0.00 46 1020.3
20260830224027 86 109 1.0 3.0 0.00 0.00 0.00 45 1020.4
20260830223528 86 109 1.0 4.0 0.00 0.00 0.00 45 1020.4
20260830223104 86 84 2.0 4.0 0.00 0.00 0.00 44 1020.3
20260830222524 87 143 0.0 4.0 0.00 0.00 0.00 44 1020.3
20260830222026 87 66 0.0 4.0 0.00 0.00 0.00 44 1020.3
20260830221549 87 70 1.0 5.0 0.00 0.00 0.00 44 1020.3
20260830221026 87 70 2.0 5.0 0.00 0.00 0.00 43 1020.5
20260830220525 87 96 0.0 6.0 0.00 0.00 0.00 44 1020.4
20260830220044 87 96 2.0 6.0 0.00 0.00 0.00 43 1020.5
20260830215527 87 101 3.0 6.0 0.00 0.00 0.00 43 1020.6
20260830215023 87 115 1.0 4.0 0.00 0.00 0.00 43 1020.6
20260830214546 87 86 0.0 4.0 0.00 0.00 0.00 43 1020.7
20260830214028 87 85 2.0 4.0 0.00 0.00 0.00 43 1020.7
20260830213525 87 110 1.0 4.0 0.00 0.00 0.00 43 1020.7
20260830213049 87 96 1.0 4.0 0.00 0.00 0.00 44 1020.7
20260830212526 87 107 1.0 4.0 0.00 0.00 0.00 45 1020.7
20260830212026 87 121 0.0 3.0 0.00 0.00 0.00 47 1020.8
20260830211549 86 105 1.0 6.0 0.00 0.00 0.00 45 1020.8
20260830211028 87 104 2.0 9.0 0.00 0.00 0.00 45 1020.8
20260830210525 87 108 3.0 9.0 0.00 0.00 0.00 44 1020.7
20260830210048 87 103 4.0 9.0 0.00 0.00 0.00 45 1020.7
20260830205527 87 105 0.0 4.0 0.00 0.00 0.00 46 1020.7
20260830205023 87 86 1.0 6.0 0.00 0.00 0.00 45 1020.7
20260830204554 87 0 2.0 9.0 0.00 0.00 0.00 44 1020.8
20260830204024 87 112 3.0 9.0 0.00 0.00 0.00 44 1020.8
20260830203526 88 117 3.0 6.0 0.00 0.00 0.00 45 1020.8
20260830203043 88 77 2.0 6.0 0.00 0.00 0.00 43 1020.8
20260830202530 88 262 1.0 8.0 0.00 0.00 0.00 45 1020.8
20260830202026 88 94 1.0 8.0 0.00 0.00 0.00 45 1020.9
20260830201553 88 90 4.0 8.0 0.00 0.00 0.00 45 1021.0
20260830201027 88 89 1.0 5.0 0.00 0.00 0.00 46 1021.1
20260830200527 87 281 1.0 8.0 0.00 0.00 0.00 45 1021.1
20260830200049 87 242 1.0 8.0 0.00 0.00 0.00 46 1021.1
20260830195525 87 106 4.0 7.0 0.00 0.00 0.00 46 1021.3
20260830195024 88 114 3.0 9.0 0.00 0.00 0.00 47 1021.3
20260830194546 88 82 3.0 9.0 0.00 0.00 0.00 46 1021.4
20260830194024 88 92 3.0 9.0 0.00 0.00 0.00 45 1021.4
20260830193525 88 94 2.0 5.0 0.00 0.00 0.00 45 1021.4
20260830193041 88 297 1.0 8.0 0.00 0.00 0.00 46 1021.5
20260830192530 87 108 3.0 9.0 0.00 0.00 0.00 46 1021.6
20260830192025 87 116 5.0 10.0 0.00 0.00 0.00 47 1021.6
20260830191551 88 119 3.0 10.0 0.00 0.00 0.00 46 1021.6
20260830191025 88 113 5.0 10.0 0.00 0.00 0.00 46 1021.7
20260830190526 88 87 3.0 8.0 0.00 0.00 0.00 45 1021.8
20260830190105 89 94 3.0 8.0 0.00 0.00 0.00 45 1021.8
20260830185529 88 78 2.0 7.0 0.00 0.00 0.00 45 1021.9
20260830185029 88 98 2.0 7.0 0.00 0.00 0.00 47 1022.0
20260830184545 88 350 2.0 5.0 0.00 0.00 0.00 49 1022.0
20260830184024 87 89 2.0 8.0 0.00 0.00 0.00 47 1022.0
20260830183523 87 287 3.0 8.0 0.00 0.00 0.00 47 1022.2
20260830183059 87 284 1.0 7.0 0.00 0.00 0.00 45 1022.2
20260830182525 87 98 3.0 7.0 0.00 0.00 0.00 46 1022.5
20260830182028 87 302 3.0 5.0 0.00 0.00 0.00 46 1022.5
20260830181547 87 271 1.0 3.0 0.00 0.00 0.00 47 1022.5
20260830181024 88 84 0.0 3.0 0.00 0.00 0.00 48 1022.5
20260830180523 88 0 1.0 3.0 0.00 0.00 0.00 48 1022.7
20260830180045 87 0 1.0 5.0 0.00 0.00 0.00 53 1022.9
20260830175524 86 0 1.0 5.0 0.00 0.00 0.00 50 1023.0
20260830175028 87 118 2.0 8.0 0.00 0.00 0.00 49 1023.0
20260830174603 86 115 2.0 8.0 0.00 0.00 0.00 49 1023.1
20260830174026 86 286 1.0 4.0 0.00 0.00 0.00 51 1023.1
20260830173524 85 92 2.0 7.0 0.00 0.00 0.00 51 1023.3
20260830173046 86 287 2.0 7.0 0.00 0.00 0.00 47 1023.1
20260830172523 87 0 1.0 6.0 0.00 0.00 0.00 48 1023.2
20260830172023 88 127 2.0 6.0 0.00 0.00 0.00 49 1023.3
20260830171547 88 127 0.0 2.0 0.00 0.00 0.00 50 1023.3
20260830171027 87 292 0.0 3.0 0.00 0.00 0.00 53 1023.4
20260830170523 86 303 1.0 6.0 0.00 0.00 0.00 63 1023.4
20260830170053 86 131 0.0 6.0 0.00 0.00 0.00 65 1023.6
20260830165525 85 75 2.0 6.0 0.00 0.00 0.00 67 1023.7
20260830165024 85 298 1.0 6.0 0.00 0.00 0.00 67 1023.7
20260830164553 84 139 1.0 8.0 0.00 0.00 0.00 69 1023.6
20260830164023 84 90 4.0 8.0 0.00 0.00 0.00 68 1023.5
20260830163524 86 122 2.0 5.0 0.00 0.00 0.00 66 1023.7